Flag for Germany Weather past 2 weeks in Melle, Lower Saxony, Germany

Now
43 °F

Partly sunny.


Feels Like: 36 °F
Forecast: 33 / 42 °F
Wind: 12 mph from Southwest

Location: Muenster / Osnabrueck

Current Time: Mar 3, 2015 at 12:08:28 PM

Latest Report: Mar 3, 2015 at 11:20 AM


Visibility: N/A

Pressure: 29.98 "Hg

Humidity: 76%

Dew point: 36 °F

Location of MelleLocation

Historic Weather in Melle — Graph

°F

Melle temperature yesterday

Maximum temperature yesterday: 48 °F (at 2:20 PM)
Minimum temperature yesterday: 36 °F (at 5:20 PM)
Average temperature yesterday: 41 °F

Past Weeks' High & Low Weather Summary

 TemperatureHumidityPressure
High50 °F (Mar 1, 12:20 PM)100% (Feb 16, 11:20 PM)30.74 "Hg (Feb 16, 11:20 PM)
Low27 °F (Feb 17, 1:50 AM)46% (Feb 28, 2:20 PM)29.30 "Hg (Feb 21, 6:20 AM)
Average39 °F85%29.91 "Hg
* Reported Feb 16 10:20 AM — Mar 3 10:50 AM, Melle, Weather by CustomWeather, © 2015

Note: Actual official high and low records may vary slightly from our data, if they occured in-between our weather recording intervals... More about our weather records

Advertising

Melle weather history for previous 24 hours

 ConditionsComfort  
Time TempWeatherWind HumidityBarometerVisibility
10:50 AM
Tue, Mar 3
41 °FPartly sunny.13 mph81%29.98 "HgN/A
10:20 AM41 °FPartly sunny.12 mph76%29.98 "HgN/A
9:50 AM41 °FScattered clouds.13 mph81%30.01 "HgN/A
9:20 AM39 °FPassing clouds.14 mph81%30.01 "HgN/A
8:50 AM37 °FPassing clouds.12 mph87%30.01 "HgN/A
8:20 AM37 °FPassing clouds.12 mph81%30.01 "HgN/A
7:50 AM37 °FPassing clouds.9 mph87%30.01 "HgN/A
7:20 AM37 °FPassing clouds.9 mph81%30.01 "HgN/A
6:50 AM37 °FPassing clouds.10 mph81%29.98 "HgN/A
6:20 AM37 °FClear.9 mph81%29.98 "Hg10 mi
5:50 AM36 °FClear.10 mph87%29.98 "Hg10 mi
5:20 AM36 °FClear.10 mph87%29.98 "Hg10 mi
4:50 AM36 °FClear.10 mph87%29.98 "Hg10 mi
4:20 AM37 °FClear.10 mph81%29.98 "Hg10 mi
3:50 AM37 °FClear.13 mph81%29.98 "Hg10 mi
3:20 AM37 °FClear.12 mph81%29.95 "Hg10 mi
2:50 AM37 °FClear.13 mph75%29.95 "Hg10 mi
2:20 AM37 °FClear.12 mph75%29.95 "Hg10 mi
1:50 AM37 °FClear.12 mph75%29.95 "Hg10 mi
1:20 AM37 °FClear.12 mph81%29.92 "Hg10 mi
12:50 AM37 °FClear.15 mph81%29.92 "Hg10 mi
12:20 AM37 °FClear.15 mph81%29.89 "Hg10 mi
11:50 PM
Mon, Mar 2
37 °FClear.17 mph81%29.89 "Hg10 mi
11:20 PM36 °FPassing clouds.16 mph87%29.86 "HgN/A
10:50 PM37 °FPassing clouds.16 mph81%29.86 "HgN/A
10:20 PM37 °FPassing clouds.16 mph81%29.83 "HgN/A
9:50 PM36 °FPassing clouds.9 mph93%29.83 "HgN/A
9:20 PM36 °FPassing clouds.12 mph87%29.83 "HgN/A
8:50 PM36 °FPassing clouds.13 mph93%29.80 "HgN/A
8:20 PM37 °FThunderstorms. Partly cloudy.10 mph87%29.80 "HgN/A
7:50 PM37 °FPassing clouds.10 mph81%29.77 "HgN/A
7:20 PM37 °FPassing clouds.7 mph93%29.74 "HgN/A
6:50 PM37 °FPassing clouds.12 mph93%29.74 "HgN/A
6:20 PM37 °FPassing clouds.12 mph93%29.71 "HgN/A
5:50 PM37 °FBroken clouds.12 mph93%29.71 "HgN/A
5:20 PM36 °FSnow flurries. Broken clouds.20 mph93%29.71 "HgN/A
4:50 PM41 °FSprinkles. Broken clouds.25 mph76%29.68 "HgN/A
4:20 PM45 °FSprinkles. Broken clouds.17 mph61%29.65 "HgN/A
3:50 PM46 °FBroken clouds.18 mph57%29.62 "HgN/A
3:20 PM46 °FPartly sunny.21 mph53%29.62 "HgN/A
2:50 PM48 °FBroken clouds.23 mph54%29.62 "HgN/A
2:20 PM48 °FScattered clouds.23 mph50%29.62 "HgN/A
1:50 PM46 °FScattered clouds.17 mph57%29.62 "HgN/A
1:20 PM46 °FScattered clouds.22 mph57%29.62 "HgN/A
12:50 PM46 °FScattered clouds.22 mph53%29.62 "HgN/A
12:20 PM45 °FPartly sunny.21 mph61%29.62 "HgN/A
Weather by CustomWeather, © 2015

See weather overviewHow to use our weather pages